[[{"header":{"parameterUnit":"m.s-1","parameterCategory":1,"la1":30.2991,"la2":30.254,"lo1":-89.0895,"lo2":-89.0444,"dy":0.0017,"dx":0.0017,"nx":28,"ny":28,"refTime":"2024-04-19T09:00:00:Z","depth":0,"parameterNumber":2,"parameterNumberName":"U-component_of_WINDS"},"data":[0,0,0,0,0,0,0,0,0,0,0,0,0,0,0,0,0,0,0,0,0,0,0,0,0,0,0,0,0,0,0,0,0,0,0,0,0,0,0,0,0,0,0,0,0,0,0,0,0,0,0,0,0,0,0,0,0,0,-0.8269,-0.8269,0,-0.8264,-0.8264,-0.8264,-0.8254,-0.8254,-0.8254,-0.8254,-0.8247,-0.8247,-0.8247,0,0,0,0,0,0,0,0,0,0,0,0,0,-0.827,-0.827,-0.8269,-0.8269,-0.8269,-0.8264,-0.8264,-0.8264,-0.8254,-0.8254,-0.8254,-0.8253,-0.8247,-0.8247,-0.8248,0,0,0,0,0,0,0,0,0,0,0,0,0,-0.8268,-0.827,-0.8269,-0.8263,-0.8263,-0.8264,-0.8264,-0.8264,-0.8254,-0.8254,-0.8254,-0.8253,-0.8247,-0.8247,-0.8248,-0.8254,0,0,-0.8248,-0.8248,0,0,0,0,0,0,0,0,-0.8268,-0.8268,-0.8264,-0.8264,-0.8263,-0.8259,-0.8262,-0.8261,-0.8254,-0.8257,-0.8254,-0.8253,-0.8252,-0.8251,-0.8251,-0.8253,-0.8253,-0.8248,-0.8248,-0.8248,-0.8248,0,0,0,0,0,0,0,-0.8268,-0.8268,-0.8267,-0.8264,-0.8264,-0.8261,-0.8261,-0.8262,-0.8256,-0.8257,-0.8256,-0.8256,-0.8251,-0.8251,-0.8251,-0.8253,-0.8248,-0.8248,-0.8248,-0.8248,-0.8261,-0.8261,0,0,0,0,0,0,-0.8269,-0.8268,-0.8267,-0.8267,-0.8265,-0.8261,-0.8261,-0.8261,-0.8256,-0.8255,-0.8256,-0.8256,-0.8251,-0.8251,-0.8251,-0.8258,-0.8248,-0.8248,-0.8248,-0.8261,-0.8261,-0.8262,0,0,0,0,0,0,-0.8269,-0.8269,-0.8267,-0.8267,-0.8267,-0.8262,-0.8262,-0.8261,-0.8261,-0.8256,-0.8254,-0.8257,-0.8251,-0.825,-0.8253,-0.8257,-0.8248,-0.8248,-0.826,-0.8261,-0.8261,-0.8272,0,0,0,0,0,0,-0.8269,-0.8269,-0.8271,-0.8267,-0.8267,-0.827,-0.8262,-0.8261,-0.8261,-0.826,-0.8256,-0.8255,-0.8251,-0.8253,-0.8253,-0.8257,-0.8248,-0.826,-0.8261,-0.8261,-0.8271,-0.8273,-0.8274,0,0,0,0,0,-0.8269,-0.8274,-0.8271,-0.8271,-0.827,-0.827,-0.827,-0.8265,-0.8261,-0.8263,-0.826,-0.8255,-0.8257,-0.8254,-0.8254,-0.8258,-0.826,-0.826,-0.8261,-0.8271,-0.8272,-0.8274,0,0,0,0,0,0,-0.8278,-0.8273,-0.827,-0.8274,-0.8273,-0.8269,-0.8271,-0.8267,-0.8267,-0.8266,-0.826,-0.8259,-0.8262,-0.826,-0.8256,-0.8264,-0.8258,-0.8258,-0.8265,-0.8267,-0.8268,-0.8268,-0.8248,0,0,0,0,0,-0.828,-0.8281,-0.8277,-0.8281,-0.8281,-0.8276,-0.8276,-0.8273,-0.8271,-0.827,-0.8267,-0.8266,-0.8266,-0.8266,-0.8266,-0.8271,-0.827,-0.8274,-0.8276,-0.8277,-0.8277,-0.8281,-0.8282,-0.8264,-0.8264,-0.8264,0,0,-0.8285,-0.8283,-0.8284,-0.8283,-0.8281,-0.8283,-0.8276,-0.8277,-0.8278,-0.827,-0.8273,-0.8271,-0.8269,-0.8273,-0.8275,-0.8271,-0.8283,-0.8278,-0.8279,-0.8279,-0.8281,-0.8283,-0.8285,-0.8265,-0.8265,-0.8264,0,0,-0.8294,-0.8293,-0.8296,-0.8295,-0.8293,-0.829,-0.8291,-0.8288,-0.8287,-0.8289,-0.8284,-0.8285,-0.8286,-0.8285,-0.8284,-0.8295,-0.829,-0.8295,-0.8302,-0.8306,-0.8307,-0.8308,-0.8312,-0.8314,-0.8296,-0.8296,-0.8296,0,-0.83,-0.8302,-0.8298,-0.83,-0.83,-0.8294,-0.8297,-0.8297,-0.8295,-0.8295,-0.8292,-0.8293,-0.8291,-0.8295,-0.8298,-0.8298,-0.8299,-0.8295,-0.8307,-0.8308,-0.8309,-0.8313,-0.8315,-0.8297,-0.8296,-0.8296,-0.8296,0,-0.8309,-0.8311,-0.8314,-0.8313,-0.8314,-0.8316,-0.8313,-0.8314,-0.8311,-0.8309,-0.8312,-0.831,-0.8309,-0.831,-0.8307,-0.8314,-0.8312,-0.8308,-0.8302,-0.8312,-0.8315,-0.8317,-0.8297,-0.8297,-0.8297,-0.8297,0,0,-0.8322,-0.832,-0.8321,-0.8321,-0.832,-0.8321,-0.8324,-0.8325,-0.8326,-0.8325,-0.8327,-0.8329,-0.8326,-0.8325,-0.8322,-0.8325,-0.8334,-0.832,-0.832,-0.8323,-0.8342,-0.8345,-0.8346,-0.8331,-0.8332,-0.8332,-0.8342,0,-0.8331,-0.8336,-0.8333,-0.8338,-0.834,-0.8335,-0.8338,-0.8337,-0.8336,-0.8337,-0.8335,-0.8337,-0.8332,-0.8332,-0.8334,-0.8332,-0.8338,-0.8331,-0.8333,-0.8333,-0.8333,-0.8348,-0.8351,-0.8361,-0.8343,-0.8344,-0.8344,0,-0.8341,-0.8342,-0.8348,-0.8347,-0.8347,-0.835,-0.835,-0.8352,-0.8352,-0.835,-0.8351,-0.8347,-0.835,-0.8345,-0.8349,-0.8345,-0.8346,-0.8345,-0.8346,-0.8345,-0.8339,-0.8348,-0.8364,-0.8365,-0.8346,-0.8346,-0.8346,0,-0.835,-0.8352,-0.8356,-0.8357,-0.8356,-0.8357,-0.8357,-0.8357,-0.8357,-0.8358,-0.8359,-0.836,-0.836,-0.8361,-0.8358,-0.8355,-0.8363,-0.8357,-0.8362,-0.8362,-0.8363,-0.8363,-0.8379,-0.8365,-0.8365,-0.8365,-0.8365,0,-0.836,-0.8363,-0.836,-0.8363,-0.8367,-0.8364,-0.8368,-0.8367,-0.8367,-0.837,-0.8366,-0.8368,-0.8364,-0.8366,-0.8364,-0.8368,-0.8369,-0.8368,-0.8367,-0.8368,-0.8368,-0.8367,-0.8366,-0.8365,-0.8365,-0.8365,-0.8365,0,-0.837,-0.8368,-0.8372,-0.8371,-0.8371,-0.8374,-0.8374,-0.8376,-0.8375,-0.8378,-0.8378,-0.8376,-0.8379,-0.8376,-0.8378,-0.8377,-0.8382,-0.8381,-0.8383,-0.8382,-0.8387,-0.8386,-0.8403,-0.8405,-0.839,-0.839,-0.839,0,-0.8375,-0.8378,-0.8378,-0.838,-0.838,-0.8382,-0.8383,-0.8381,-0.8382,-0.8383,-0.8385,-0.8388,-0.8389,-0.8393,-0.8392,-0.8393,-0.8391,-0.8397,-0.8392,-0.8393,-0.8391,-0.8391,-0.8391,-0.8398,-0.8398,-0.8398,-0.8399,0,-0.8386,-0.8386,-0.8387,-0.8389,-0.8391,-0.8392,-0.8393,-0.8395,-0.8392,-0.8394,-0.8397,-0.8398,-0.8401,-0.8403,-0.8405,-0.8404,-0.8401,-0.8401,-0.8402,-0.8402,-0.8403,-0.8403,-0.8385,-0.84,-0.84,-0.84,-0.84,-0.84,-0.8394,-0.8397,-0.8397,-0.84,-0.8401,-0.8402,-0.8404,-0.8404,-0.8406,-0.8408,-0.8407,-0.841,-0.8411,-0.8413,-0.8413,-0.8416,-0.8413,-0.8415,-0.8415,-0.8416,-0.8416,-0.8403,-0.8416,-0.8416,-0.8416,-0.8416,-0.8416,0,-0.8405,-0.8405,-0.8408,-0.8409,-0.8412,-0.8409,-0.8411,-0.8413,-0.8416,-0.8417,-0.8419,-0.8422,-0.8425,-0.8424,-0.8427,-0.8429,-0.8427,-0.8429,-0.8429,-0.8429,-0.8418,-0.8417,-0.843,-0.843,-0.843,-0.843,-0.843,-0.843,-0.841,-0.8415,-0.8414,-0.8419,-0.842,-0.8423,-0.8424,-0.8426,-0.8427,-0.8431,-0.8433,-0.8433,-0.8434,-0.8436,-0.8439,-0.8439,-0.8439,-0.8442,-0.8441,-0.8431,-0.843,-0.8428,-0.8427,-0.8442,-0.8442,-0.8451,-0.8452,-0.8452]},{"header":{"parameterUnit":"m.s-1","parameterCategory":1,"la1":30.2991,"la2":30.254,"lo1":-89.0895,"lo2":-89.0444,"dy":0.0017,"dx":0.0017,"nx":28,"ny":28,"refTime":"2024-04-19T09:00:00:Z","depth":0,"parameterNumber":3,"parameterNumberName":"V-component_of_WINDS"},"data":[0,0,0,0,0,0,0,0,0,0,0,0,0,0,0,0,0,0,0,0,0,0,0,0,0,0,0,0,0,0,0,0,0,0,0,0,0,0,0,0,0,0,0,0,0,0,0,0,0,0,0,0,0,0,0,0,0,0,2.1208,2.1207,0,2.1177,2.1176,2.1176,2.1166,2.1167,2.1167,2.1167,2.113,2.1129,2.1128,0,0,0,0,0,0,0,0,0,0,0,0,0,2.1255,2.1254,2.1208,2.1207,2.1207,2.1177,2.1176,2.1176,2.1166,2.1167,2.1167,2.1167,2.113,2.1129,2.1128,0,0,0,0,0,0,0,0,0,0,0,0,0,2.123,2.1254,2.1208,2.1199,2.1198,2.1177,2.1176,2.1176,2.1166,2.1167,2.1167,2.1167,2.1131,2.1129,2.1127,2.1112,0,0,2.1122,2.1121,0,0,0,0,0,0,0,0,2.1232,2.1229,2.1201,2.1199,2.1198,2.1176,2.1179,2.1154,2.1166,2.1178,2.1167,2.1167,2.1145,2.1142,2.1135,2.111,2.1108,2.1122,2.1121,2.112,2.112,0,0,0,0,0,0,0,2.1233,2.123,2.1195,2.12,2.1199,2.1195,2.1192,2.1174,2.116,2.1177,2.1176,2.1173,2.1144,2.1137,2.1134,2.1108,2.1122,2.1121,2.1119,2.1119,2.1068,2.1067,0,0,0,0,0,0,2.1237,2.1231,2.1196,2.1194,2.1216,2.1194,2.119,2.1183,2.116,2.1157,2.1173,2.1173,2.114,2.1136,2.1133,2.1113,2.112,2.1119,2.1118,2.1068,2.1068,2.1067,0,0,0,0,0,0,2.1238,2.1234,2.1198,2.1213,2.1208,2.1193,2.1184,2.1182,2.1175,2.1157,2.1154,2.1169,2.114,2.1135,2.1117,2.1112,2.1118,2.1116,2.1068,2.1068,2.1068,2.1074,0,0,0,0,0,0,2.124,2.1235,2.123,2.1213,2.1207,2.1184,2.1184,2.1181,2.1172,2.1172,2.1152,2.1149,2.114,2.112,2.1116,2.111,2.1115,2.1069,2.1068,2.1068,2.1074,2.1073,2.1073,0,0,0,0,0,2.1242,2.1232,2.1229,2.1225,2.1201,2.1184,2.118,2.1171,2.1172,2.1166,2.1155,2.115,2.1113,2.1118,2.1113,2.1107,2.1069,2.1068,2.1068,2.1074,2.1073,2.1073,0,0,0,0,0,0,2.1246,2.1229,2.1227,2.1211,2.1199,2.1182,2.1174,2.117,2.1157,2.1156,2.1144,2.1139,2.1122,2.1112,2.1118,2.109,2.1091,2.1089,2.1097,2.1097,2.1096,2.1099,2.1114,0,0,0,0,0,2.1246,2.1235,2.122,2.1208,2.1202,2.1189,2.1182,2.1176,2.1162,2.1156,2.1144,2.1129,2.1114,2.1105,2.109,2.1072,2.1068,2.1065,2.1065,2.1064,2.1063,2.1053,2.1051,2.1065,2.1065,2.1065,0,0,2.1244,2.1234,2.1227,2.1208,2.1198,2.1186,2.1185,2.1172,2.1163,2.1154,2.1137,2.1127,2.111,2.1092,2.1083,2.1083,2.1058,2.1064,2.1064,2.1062,2.1052,2.1051,2.105,2.1064,2.1065,2.1065,0,0,2.1236,2.1227,2.1216,2.1206,2.1192,2.1183,2.1181,2.1164,2.1158,2.1141,2.1134,2.1122,2.1097,2.1085,2.1076,2.1063,2.1058,2.1058,2.1056,2.1046,2.1045,2.1044,2.104,2.1038,2.1057,2.1057,2.1057,0,2.1235,2.1218,2.121,2.1198,2.119,2.1183,2.1171,2.1161,2.1142,2.1136,2.1136,2.1105,2.1093,2.1072,2.1069,2.1062,2.1058,2.1061,2.1046,2.1045,2.1044,2.104,2.1038,2.1057,2.1057,2.1057,2.1057,0,2.1218,2.1207,2.1199,2.1183,2.1174,2.1161,2.115,2.1141,2.1136,2.1127,2.111,2.1095,2.1078,2.1072,2.1066,2.1051,2.1051,2.1049,2.105,2.1043,2.1039,2.1037,2.1057,2.1057,2.1057,2.1057,0,0,2.1212,2.1192,2.1189,2.1182,2.1165,2.1155,2.1142,2.1127,2.112,2.1107,2.1095,2.1074,2.1073,2.1062,2.1054,2.1046,2.1037,2.1045,2.1044,2.1044,2.1019,2.1021,2.1019,2.1033,2.1033,2.1033,2.102,0,2.1201,2.118,2.1172,2.1154,2.1143,2.1136,2.1125,2.1113,2.1104,2.1092,2.1082,2.1068,2.1067,2.106,2.1052,2.104,2.1031,2.1041,2.1021,2.1021,2.1026,2.1016,2.1018,2.1007,2.1018,2.1018,2.1018,0,2.1186,2.1174,2.1156,2.1142,2.1136,2.1127,2.1112,2.1101,2.1087,2.1081,2.107,2.1063,2.1048,2.105,2.1029,2.1035,2.1027,2.102,2.1019,2.1017,2.1019,2.1014,2.1003,2.1002,2.1015,2.1015,2.1015,0,2.1183,2.1163,2.1149,2.1143,2.1126,2.1119,2.1111,2.1098,2.1089,2.1075,2.1069,2.1054,2.1045,2.1033,2.1021,2.1024,2.1001,2.1002,2.0995,2.0995,2.0991,2.0991,2.0979,2.0985,2.0985,2.0985,2.0985,0,2.1172,2.1161,2.1148,2.114,2.1127,2.1118,2.1105,2.1096,2.1084,2.1073,2.1065,2.1055,2.104,2.1027,2.1018,2.1002,2.0998,2.0992,2.099,2.0993,2.0994,2.0987,2.0988,2.0985,2.0985,2.0985,2.0985,0,2.1167,2.1158,2.1143,2.1128,2.1124,2.1115,2.1102,2.1093,2.1084,2.107,2.1066,2.1052,2.1037,2.1024,2.1003,2.0997,2.098,2.0978,2.0986,2.0985,2.0979,2.098,2.0962,2.0959,2.0967,2.0967,2.0967,0,2.1161,2.1152,2.1137,2.113,2.1123,2.1111,2.1103,2.1093,2.1084,2.1068,2.106,2.1045,2.1032,2.1007,2.0994,2.0978,2.0975,2.097,2.0973,2.0976,2.0975,2.0976,2.0975,2.097,2.097,2.097,2.097,0,2.1151,2.1147,2.1136,2.1123,2.1114,2.1103,2.1092,2.1086,2.1074,2.1064,2.1049,2.104,2.1019,2.1004,2.0987,2.0977,2.0971,2.0969,2.0967,2.097,2.0975,2.0972,2.0985,2.0969,2.0969,2.097,2.097,2.097,2.1145,2.1137,2.1126,2.1114,2.1105,2.1094,2.1086,2.1076,2.1064,2.1048,2.1043,2.1027,2.1013,2.099,2.098,2.0967,2.0966,2.0962,2.0962,2.0961,2.0962,2.0977,2.0963,2.0963,2.0963,2.0963,2.0963,0,2.1134,2.1127,2.1116,2.1102,2.1092,2.1089,2.1076,2.1068,2.1055,2.1043,2.1031,2.1014,2.0999,2.0985,2.0969,2.0961,2.0958,2.0957,2.0958,2.0955,2.0963,2.0967,2.096,2.096,2.096,2.096,2.096,2.096,2.1128,2.1115,2.111,2.1092,2.1084,2.107,2.1064,2.1054,2.1044,2.1026,2.1014,2.1006,2.0993,2.0976,2.0961,2.0957,2.0952,2.0952,2.0947,2.0954,2.0955,2.0955,2.0959,2.095,2.095,2.0941,2.094,2.094]}]]